www.pogodaiklimat.ru

Погода и климат >> Архив погоды >> Япония >> Томакомай


ПОГОДА в Томакомае

  • Прогноз погоды в Томакомае
  • Монитор погоды в Томакомае

АРХИВ ПОГОДЫ в Томакомае

Время (UTC), дата Ветер
(напр.,м/с)
 
Видим.   Явления Облачность Т
(С)
Тd
(С)
f
(%)
Тe
(С)
Тes
(С)
Комфортность P
(гПа)
Po
(гПа)
Тmin
(С)
Tmax
(С)
R
(мм)
R24
(мм)
S
(см)
13 18.06 ЮВ 2 20 км н/о +13.2 +11.6 90 +12 +12 1011.5 1010.6
14 18.06 Ю 3 20 км н/о +13.2 +11.6 90 +12 +12 1011.4 1010.5
15 18.06 ЮВ 2 20 км н/о +12.8 +11.4 91 +12 +12 1010.9 1010.0
16 18.06 В 1 20 км н/о +12.4 +11.1 92 +13 +13 1010.8 1009.8
17 18.06 С 1 20 км н/о +10.9 +10.0 94 +10 +10 1010.5 1009.5
18 18.06 СЗ 1 20 км н/о +10.1 +9.3 95 +9 +9 1010.0 1009.0
19 18.06 СЗ 2 20 км н/о +9.8 +9.0 95 +8 +8 1010.1 1009.1
20 18.06 СЗ 1 20 км н/о +10.4 +9.5 94 +10 +10 1010.3 1009.3
21 18.06 ЮЗ 2 20 км н/о +13.5 +11.2 86 +13 +13 1009.9 1009.0
22 18.06 ЮЗ 2 20 км н/о +14.4 +11.2 81 +14 +14 1009.6 1008.7
23 18.06 ЮЗ 2 20 км н/о +15.7 +11.3 75 +16 +16 1009.7 1008.8
00 19.06 Ю 3 20 км н/о +16.3 +11.5 73 +16 +16 1009.5 1008.6 +9.6
01 19.06 Ю 3 20 км н/о +17.2 +11.9 71 +17 +17 1009.4 1008.5
02 19.06 ЮЗ 4 20 км н/о +17.3 +12.0 71 +17 +17 1009.2 1008.3
03 19.06 Ю 4 20 км н/о +17.9 +12.4 70 +18 +18 1008.6 1007.7
04 19.06 Ю 3 20 км н/о +17.6 +11.6 68 +18 +18 1008.3 1007.4
05 19.06 Ю 3 20 км н/о +17.8 +11.1 65 +18 +18 1007.7 1006.8
06 19.06 Ю 3 20 км н/о +17.4 +11.0 66 +17 +17 1007.6 1006.7
07 19.06 ЮЗ 3 20 км н/о +17.4 +11.4 68 +17 +17 1007.5 1006.6
08 19.06 ЮЗ 3 20 км н/о +17.6 +11.4 67 +18 +18 1007.6 1006.7
09 19.06 ЮЗ 4 20 км н/о +16.9 +11.4 70 +16 +16 1007.8 1006.9
10 19.06 ЮЗ 3 20 км н/о +16.1 +11.5 74 +16 +16 1008.1 1007.2
11 19.06 Ю 2 20 км н/о +15.3 +12.3 82 +15 +15 1008.3 1007.4
12 19.06 В 2 20 км н/о +14.8 +12.5 86 +15 +15 1008.6 1007.7 +18.8
13 19.06 В 2 20 км н/о +14.4 +13.0 91 +14 +14 1008.4 1007.5
14 19.06 СВ 1 20 км н/о +13.3 +11.7 90 +13 +13 1008.5 1007.6
15 19.06 СЗ 1 20 км н/о +12.6 +11.3 92 +13 +13 1008.2 1007.3
16 19.06 З 2 20 км н/о +11.9 +11.0 94 +11 +11 1008.0 1007.1
17 19.06 С 1 20 км н/о +11.7 +10.5 92 +12 +12 1007.9 1006.9
18 19.06 С 1 20 км н/о +11.5 +10.4 93 +12 +12 1007.9 1006.9
19 19.06 СВ 1 20 км н/о +11.3 +10.1 92 +12 +12 1008.1 1007.1
20 19.06 З 1 20 км н/о +11.7 +10.1 90 +11 +11 1008.6 1007.6
21 19.06 ЮВ 1 20 км н/о +14.6 +11.4 81 +15 +15 1008.5 1007.6
22 19.06 ЮВ 2 20 км н/о +15.2 +11.2 77 +15 +15 1008.3 1007.4
23 19.06 Ю 3 20 км н/о +15.5 +12.5 82 +15 +15 1008.4 1007.5
00 20.06 Ю 3 20 км н/о +15.8 +12.2 79 +15 +15 1008.3 1007.4 +11.2
01 20.06 Ю 3 20 км н/о +16.4 +13.9 85 +16 +16 1008.4 1007.5
02 20.06 Ю 4 17 км н/о +15.6 +13.6 88 +15 +15 1008.8 1007.9
03 20.06 ЮЗ 4 14 км н/о +14.7 +12.9 89 +13 +13 1009.0 1008.1
04 20.06 ЮЗ 5 20 км н/о +14.6 +13.2 91 +13 +13 1009.1 1008.2
05 20.06 ЮЗ 4 17 км н/о +15.2 +13.8 91 +14 +14 1009.0 1008.1
06 20.06 ЮЗ 3 17 км н/о +15.5 +13.5 88 +15 +15 1008.7 1007.8
07 20.06 Ю 3 9000 м дымка н/о +14.9 +13.6 92 +14 +14 1008.5 1007.6
08 20.06 Ю 2 9000 м дымка н/о +14.5 +13.4 93 +14 +14 1008.6 1007.7
09 20.06 ЮЗ 2 13 км н/о +14.6 +13.0 90 +14 +14 1008.9 1008.0
10 20.06 ЮЗ 3 14 км н/о +14.6 +13.0 90 +14 +14 1009.3 1008.4
11 20.06 Ю 2 16 км н/о +14.4 +13.0 91 +14 +14 1009.9 1009.0
12 20.06 ЮЗ 2 14 км н/о +14.3 +13.4 94 +14 +14 1010.2 1009.3 +17.2
13 20.06 ЮЗ 3 14 км н/о +14.3 +13.4 94 +13 +13 1010.3 1009.4
14 20.06 ЮЗ 2 12 км н/о +14.5 +13.6 94 +14 +14 1010.6 1009.7
15 20.06 Ю 3 3500 м дымка н/о +14.2 +13.9 98 +13 +13 1010.6 1009.7
16 20.06 ЮВ 3 1200 м в посл. час дождь н/о +13.6 +13.5 99 +12 +12 1010.6 1009.7
17 20.06 ЮВ 3 800 м слаб. дождь н/о +13.4 +13.4 100 +12 +12 1010.3 1009.4
18 20.06 ЮВ 3 900 м слаб. дождь {туман} н/о +13.6 +13.6 100 +12 +12 1010.7 1009.8 0.0
19 20.06 ЮВ 3 7000 м в посл. час дождь н/о +13.5 +13.5 100 +12 +12 1010.9 1010.0
20 20.06 ЮВ 3 8000 м дымка н/о +13.6 +13.6 100 +12 +12 1011.3 1010.4
21 20.06 ЮВ 2 8000 м в посл. час дождь н/о +13.6 +13.6 100 +13 +13 1011.4 1010.5
22 20.06 ЮВ 3 4800 м слаб. дождь н/о +13.7 +13.7 100 +13 +13 1011.9 1011.0
23 20.06 ЮВ 2 1500 м слаб. дождь н/о +13.8 +13.8 100 +13 +13 1012.0 1011.1
00 21.06 ЮВ 3 700 м слаб. дождь н/о +13.7 +13.7 100 +12 +12 1011.7 1010.8 +13.3 0.0
01 21.06 ЮВ 2 500 м слаб. дождь н/о +13.6 +13.6 100 +13 +13 1011.8 1010.9
02 21.06 Ю 2 2000 м слаб. дождь н/о +13.5 +13.5 100 +13 +13 1011.7 1010.8
03 21.06 ЮВ 2 3400 м слаб. дождь н/о +13.9 +13.9 100 +14 +14 1011.4 1010.5
04 21.06 ЮЗ 2 1700 м слаб. дождь н/о +13.9 +13.9 100 +14 +14 1011.4 1010.5
05 21.06 ЮЗ 2 500 м слаб. дождь н/о +14.0 +14.0 100 +13 +13 1011.6 1010.7
06 21.06 Ю 2 500 м слаб. дождь {туман} н/о +13.9 +13.9 100 +13 +13 1011.9 1011.0 2
07 21.06 Ю 2 1800 м слаб. дождь н/о +14.2 +14.2 100 +14 +14 1012.0 1011.1
08 21.06 Ю 2 8000 м слаб. дождь н/о +14.0 +14.0 100 +14 +14 1011.8 1010.9
09 21.06 ЮЗ 2 18 км слаб. дождь н/о +14.0 +13.7 98 +14 +14 1012.5 1011.6
10 21.06 Ю 1 3300 м слаб. дождь н/о +13.6 +13.3 98 +14 +14 1012.1 1011.2
11 21.06 З 2 10 км слаб. дождь н/о +14.1 +14.0 99 +14 +14 1012.7 1011.8
12 21.06 З 1 3100 м слаб. дождь н/о +14.3 +14.2 99 +15 +15 1013.0 1012.1 +14.5 4
13 21.06 З 2 6000 м слаб. дождь н/о +14.6 +14.5 99 +14 +14 1012.6 1011.7
14 21.06 Ю 2 18 км слаб. дождь н/о +14.9 +14.6 98 +15 +15 1012.0 1011.1
15 21.06 ЮЗ 2 3900 м слаб. дождь н/о +14.5 +14.4 99 +14 +14 1011.9 1011.0
16 21.06 ЮЗ 2 6000 м слаб. дождь н/о +14.5 +14.5 100 +14 +14 1011.5 1010.6
17 21.06 Ю 2 15 км в посл. час дождь н/о +15.0 +14.9 99 +15 +15 1011.3 1010.4
18 21.06 З 1 10 км {дождь} н/о +15.0 +14.9 99 +15 +15 1010.9 1010.0 2
19 21.06 ЮВ 3 19 км н/о +15.5 +15.0 97 +15 +15 1010.7 1009.8
20 21.06 ЮВ 5 6000 м слаб. дождь н/о +15.6 +15.3 98 +14 +14 1010.7 1009.8
21 21.06 ЮВ 7 1800 м слаб. дождь н/о +15.3 +15.3 100 +13 +13 1010.1 1009.2
22 21.06 ЮВ 5 9000 м в посл. час дождь н/о +15.4 +15.3 99 +14 +14 1010.1 1009.2
23 21.06 ЮВ 5 9000 м слаб. дождь н/о +15.6 +15.3 98 +14 +14 1010.3 1009.4
00 22.06 ЮВ 6 9000 м слаб. дождь н/о +15.0 +14.9 99 +13 +13 1009.8 1008.9 +14.3 3
01 22.06 ЮВ 8 2000 м слаб. дождь н/о +15.0 +14.9 99 +13 +13 1009.8 1008.9
02 22.06 В 3 3500 м дождь н/о +14.9 +14.9 100 +14 +14 1010.5 1009.6
03 22.06 ЮВ 7 1900 м дождь н/о +15.0 +15.0 100 +13 +13 1010.3 1009.4
04 22.06 В 5 1700 м дождь н/о +14.8 +14.8 100 +13 +13 1009.7 1008.8
05 22.06 ЮВ 7 4800 м слаб. дождь н/о +14.4 +14.4 100 +12 +12 1009.4 1008.5
06 22.06 ЮВ 6 8000 м слаб. дождь н/о +14.6 +14.6 100 +13 +13 1009.1 1008.2 29
07 22.06 ЮВ 8 3400 м дождь н/о +14.5 +14.4 99 +12 +12 1009.0 1008.1
08 22.06 ЮВ 8 11 км слаб. дождь н/о +14.4 +14.3 99 +12 +12 1008.5 1007.6
09 22.06 ЮВ 9 5000 м дождь н/о +14.3 +14.0 98 +12 +12 1008.7 1007.8
10 22.06 ЮВ 7 6000 м слаб. дождь н/о +14.1 +14.0 99 +12 +12 1009.0 1008.1
11 22.06 ЮВ 6 6000 м слаб. дождь н/о +14.4 +14.3 99 +12 +12 1009.4 1008.5
12 22.06 ЮВ 7 13 км в посл. час дождь н/о +14.5 +14.2 98 +12 +12 1010.0 1009.1 +15.3 40
13 22.06 ЮВ 8 11 км слаб. дождь н/о +14.2 +14.1 99 +12 +12 1009.9 1009.0
14 22.06 ЮВ 5 8000 м слаб. дождь н/о +13.9 +13.8 99 +12 +12 1009.8 1008.9
15 22.06 В 4 8000 м слаб. дождь н/о +13.8 +13.5 98 +12 +12 1009.6 1008.7
16 22.06 В 2 9000 м слаб. дождь н/о +13.5 +13.2 98 +13 +13 1009.2 1008.3
17 22.06 ЮВ 4 11 км слаб. дождь н/о +13.4 +12.8 96 +12 +12 1009.1 1008.2
18 22.06 В 3 8000 м слаб. дождь н/о +13.3 +12.7 96 +12 +12 1008.9 1008.0 1
19 22.06 СВ 1 8000 м слаб. дождь н/о +13.2 +12.6 96 +13 +13 1009.6 1008.7
20 22.06 В 2 9000 м слаб. дождь н/о +13.0 +12.5 97 +12 +12 1009.8 1008.9
21 22.06 ЮЗ 2 11 км слаб. дождь н/о +13.3 +12.5 95 +13 +13 1009.9 1009.0
22 22.06 ЮЗ 2 18 км слаб. дождь н/о +14.0 +12.6 91 +13 +13 1009.8 1008.9
23 22.06 ЮЗ 3 19 км в посл. час дождь н/о +15.1 +13.3 89 +14 +14 1010.1 1009.2
00 23.06 ЮЗ 3 18 км {дождь} н/о +15.3 +12.8 85 +15 +15 1009.9 1009.0 +13.0 2
01 23.06 ЮЗ 4 20 км н/о +16.8 +12.8 77 +16 +16 1010.2 1009.3
02 23.06 ЮЗ 5 20 км н/о +16.8 +12.2 74 +16 +16 1010.2 1009.3
03 23.06 ЮЗ 4 20 км н/о +17.0 +12.3 74 +17 +17 1009.6 1008.7
04 23.06 ЮЗ 5 20 км н/о +17.7 +11.7 68 +17 +17 1009.4 1008.5
05 23.06 ЮЗ 4 20 км н/о +18.2 +10.8 62 +18 +18 1009.2 1008.3
06 23.06 ЮЗ 5 20 км н/о +17.8 +11.8 68 +17 +17 1008.8 1007.9
07 23.06 ЮЗ 7 20 км н/о +17.9 +11.9 68 +17 +17 1008.6 1007.7
08 23.06 ЮЗ 5 20 км н/о +17.6 +11.4 67 +17 +17 1008.5 1007.6
09 23.06 ЮЗ 5 20 км н/о +15.7 +12.1 79 +14 +14 1009.0 1008.1
10 23.06 ЮЗ 5 17 км н/о +14.5 +12.4 87 +13 +13 1009.8 1008.9
11 23.06 ЮЗ 4 16 км н/о +14.5 +11.7 83 +13 +13 1010.2 1009.3
12 23.06 ЮЗ 4 18 км н/о +14.2 +11.9 86 +13 +13 1010.4 1009.5 +18.8
13 23.06 ЮЗ 3 13 км н/о +13.9 +12.3 90 +13 +13 1010.4 1009.5
14 23.06 ЮЗ 3 16 км н/о +13.7 +12.4 92 +13 +13 1010.6 1009.7
15 23.06 З 2 16 км н/о +13.4 +12.3 93 +13 +13 1010.5 1009.6
16 23.06 З 1 16 км н/о +13.1 +12.0 93 +13 +13 1010.4 1009.5
17 23.06 Ю 2 7000 м дымка н/о +12.5 +11.9 96 +12 +12 1010.8 1009.8
18 23.06 ЮЗ 1 10 км н/о +12.9 +12.1 95 +14 +14 1010.9 1010.0
19 23.06 Ю 1 7000 м слаб. дождь н/о +12.9 +12.1 95 +13 +13 1011.4 1010.5
20 23.06 ЮЗ 1 11 км в посл. час дождь н/о +13.3 +12.5 95 +13 +13 1011.9 1011.0
21 23.06 Ю 2 13 км {дождь} н/о +13.8 +12.9 94 +13 +13 1012.1 1011.2
22 23.06 ЮВ 2 20 км н/о +14.4 +13.0 91 +14 +14 1012.2 1011.3
23 23.06 ЮВ 2 20 км н/о +14.7 +12.6 87 +14 +14 1011.8 1010.9
00 24.06 Ю 3 20 км {дождь} н/о +15.4 +13.4 88 +15 +15 1012.4 1011.5 +12.5 0.0
01 24.06 Ю 4 20 км н/о +15.4 +13.3 87 +14 +14 1013.0 1012.1
02 24.06 Ю 4 20 км н/о +16.1 +13.6 85 +15 +15 1013.3 1012.4
03 24.06 Ю 4 20 км н/о +16.2 +13.7 85 +16 +16 1013.0 1012.1
04 24.06 Ю 4 14 км н/о +14.9 +13.5 91 +14 +14 1013.0 1012.1
05 24.06 Ю 4 12 км н/о +14.4 +12.8 90 +13 +13 1013.1 1012.2
06 24.06 Ю 4 19 км н/о +15.3 +13.0 86 +14 +14 1013.4 1012.5
07 24.06 ЮЗ 4 14 км н/о +14.6 +12.6 88 +13 +13 1013.6 1012.7
08 24.06 Ю 4 8000 м дымка н/о +14.2 +12.8 91 +13 +13 1013.7 1012.8
09 24.06 Ю 4 10 км н/о +13.6 +12.5 93 +12 +12 1014.3 1013.4
10 24.06 Ю 4 12 км н/о +13.1 +12.0 93 +11 +11 1014.5 1013.5
11 24.06 Ю 3 12 км н/о +13.3 +12.0 92 +12 +12 1014.9 1013.9
12 24.06 Ю 4 14 км н/о +13.1 +11.8 92 +11 +11 1015.3 1014.3 +16.9
13 24.06 Ю 2 10 км н/о +12.9 +12.0 94 +12 +12 1015.2 1014.2
14 24.06 Ю 2 12 км н/о +12.8 +11.7 93 +12 +12 1015.4 1014.4
15 24.06 Ю 2 11 км н/о +12.6 +11.7 94 +12 +12 1015.6 1014.6
16 24.06 ЮЗ 3 11 км н/о +12.6 +11.7 94 +11 +11 1015.6 1014.6
17 24.06 ЮЗ 3 11 км н/о +12.3 +11.5 95 +11 +11 1015.7 1014.7
19 24.06 ЮЗ 4 7000 м дымка н/о +12.1 +11.8 98 +10 +10 1016.1 1015.1
20 24.06 Ю 3 8000 м дымка н/о +12.0 +11.4 96 +10 +10 1016.9 1015.9
21 24.06 ЮЗ 2 11 км н/о +12.5 +11.6 94 +11 +11 1017.3 1016.3
22 24.06 Ю 3 12 км н/о +12.6 +11.7 94 +11 +11 1017.5 1016.5
23 24.06 Ю 2 14 км н/о +13.3 +12.0 92 +12 +12 1017.4 1016.4
00 25.06 Ю 3 12 км н/о +13.2 +11.8 91 +12 +12 1017.2 1016.2 +11.8
01 25.06 ЮЗ 3 10 км н/о +13.9 +12.5 91 +13 +13 1017.0 1016.0
02 25.06 Ю 3 9000 м дымка н/о +14.3 +12.7 90 +13 +13 1017.1 1016.2
03 25.06 Ю 4 9000 м дымка н/о +15.1 +13.3 89 +14 +14 1016.6 1015.7
04 25.06 Ю 3 6000 м дымка н/о +14.7 +12.9 89 +14 +14 1016.4 1015.5
05 25.06 Ю 3 8000 м дымка н/о +14.3 +12.9 91 +13 +13 1016.1 1015.2
06 25.06 Ю 3 6000 м дымка н/о +13.9 +12.8 93 +13 +13 1016.0 1015.0
07 25.06 Ю 4 7000 м дымка н/о +13.8 +12.7 93 +12 +12 1016.0 1015.0
08 25.06 Ю 3 8000 м дымка н/о +14.0 +12.9 93 +13 +13 1015.5 1014.6
09 25.06 Ю 3 9000 м дымка н/о +14.1 +13.2 94 +13 +13 1015.6 1014.7
10 25.06 Ю 3 8000 м дымка н/о +14.0 +13.4 96 +13 +13 1016.1 1015.2
11 25.06 В 2 11 км н/о +14.1 +13.3 95 +13 +13 1016.3 1015.4
12 25.06 В 2 17 км н/о +14.5 +13.7 95 +14 +14 1016.8 1015.9 +15.2

 

Местоположение метеостанции Томакомай (Япония): широта 42.62 долгота 141.55 высота над уровнем моря 11 м.

В архиве по умолчанию представлена погода в Томакомае за последнюю неделю. Архивные данные за месяц целиком и за предыдущие месяцы, начиная с января 2011 года, Вы можете получить, выбрав интересующий диапазон дат из раскрывающегося списка и нажав кнопку "Ввод!".


*Определитесь, кто Вы:
робот инопланетянин человек

Внимание! Время в таблицах - всемирное. Для получения местного времени необходимо прибавить поправку, которая равна 9 ч.

Смотрите также архив погоды в соседних городах и на ближайших метеорологических станциях:

Погода в Саппоро (Япония) (53 км)
Погода в Муроране (Япония) (57 км)
Погода в Ивамидзаве (Япония) (69 км)
Погода в Куттяне (Япония) (72 км)
Погода в Отару (Япония) (76 км)
Погода в Хакодате (Япония) (111 км)
Погода в Суццу (Япония) (111 км)
Погода в Уракава (Япония) (113 км)
Погода в Обихиро (Япония) (140 км)
Погода в Асахикаве (Япония) (144 км)

Пояснения к столбцам:

Ветер - указаны скорость ветра в м/с - средняя за 10 мин, порывы в срок и между сроками (в фигурных скобках) и направление, откуда дует ветер: С - северный, СВ - северо-восточный, В - восточный, ЮВ - юго-восточный, Ю - южный, ЮЗ - юго-западный, З - западный, СЗ - северо-западный.
Видимость - горизонтальная дальность видимости в метрах или километрах. При видимости от 1 до 10 км при отсутствии осадков обычно наблюдается дымка, при ухудшении видимости до 1 км и менее - туман. В сухую погоду видимость может ухудшаться дымом, пылью или мглою.
Явления - указаны атмосферные явления, наблюдавшиеся в срок или в последний час перед сроком; фигурными скобками обозначены явления, наблюдавшиеся между сроками (за 1-3 часа до срока); квадратными скобками обозначены град или гололедные отложения с указанием их диаметра в мм.
Облачность - указаны через наклонную черту общая и нижняя облачность в баллах и высота нижней границы облаков в метрах; квадратными скобками обозначены формы облаков: Ci - перистые, Cs - перисто-слоистые, Cc - перисто-кучевые, Ac - высококучевые, As - высокослоистые, Sc - слоисто-кучевые, Ns - слоисто-дождевые, Cu - кучевые, Cb - кучево-дождевые. Подробнее классификацию облаков см. в Атласе облаков (PDF).
T - Температура воздуха - температура, измеренная на высоте 2 м над землей.
Td - Температура точки росы - температура, при понижении до которой содержащийся в воздухе водяной пар достигнет насыщения.
f - Относительная влажность воздуха - влажноcть воздуха, измеренная на высоте 2 м над землей.
Te - Эффективная температура - температура, которую ощущает одетый по сезону человек в тени. Характеристика душности погоды. При расчете учитывается влияние влажности воздуха и скорости ветра на теплоощущения человека.
Tes - Эффективная температура на солнце - температура, которую ощущает человек, с поправкой на солнечный нагрев. Характеристика знойности погоды. Зависит от высоты солнца над горизонтом, облачности и скорости ветра. Ночью, в пасмурную погоду, а также при ветре 12 м/с и более поправка равна нулю.
P - Атмосферное давление - приведенное к уровню моря атмосферное давление.
Po - Атмосферное давление - измеренное на уровне метеостанции атмосферное давление.
Tmin - Минимальная температура - минимум температуры воздуха на высоте 2 м над землей.
Tmax - Максимальная температура - максимум температуры воздуха на высоте 2 м над землей.
R - Количество осадков - Количество выпавших осадков за период времени, мм. При наведении курсора мыши на число - период времени, за который выпало указанное количество осадков.
R24 - Количество осадков - Количество выпавших осадков за 24 часа, мм.
S - Снежный покров - Высота снежного покрова, см. При наведении курсора мыши на число - состояние снежного покрова и степень покрытия местности в баллах.